Regional Weather Roundup
Issued by NWS

Home | Current Version | Previous Version | Graphics & Text | Print | Product List | Glossary On
Versions: 1 2 3 4 5 6 7 8 9 10 11 12 13 14 15 16 17 18 19 20 21 22 23 24 25 26 27 28 29 30 31 32 33 34 35 36 37 38 39 40 41 42 43 44 45 46 47 48 49 50
000
ASUS43 KLSX 020457
RWRMO

WEATHER SUMMARY FOR MISSOURI
NATIONAL WEATHER SERVICE SPRINGFIELD MO
1200 AM CDT WED SEP 02 2015

NOTE: "FAIR" INDICATES FEW OR NO CLOUDS BELOW 12,000 FEET WITH NO
       SIGNIFICANT WEATHER AND/OR OBSTRUCTIONS TO VISIBILITY.
       CURRENT SKY AND/OR WEATHER CONDITIONS ARE NOT AVAILABLE FOR
       CHILLICOTHE AND FARMINGTON.

MOZ001>031-035>038-043-044-053-054-020600-
...NORTHERN AND WESTERN MISSOURI...

CITY           SKY/WX    TMP DP  RH WIND       PRES   REMARKS
KANSAS CTY INT CLEAR     73  65  75 S10       30.01F
LEE`S SUMMIT   CLEAR     76  64  66 S7        30.04S
ST JOSEPH      MOCLDY    75  67  76 S6        29.99S
CHILLICOTHE      N/A     75  68  78 S5        30.03F

$$
MOZ066>068-077>081-088>096-101>105-020600-
...SOUTHWEST MISSOURI...

CITY           SKY/WX    TMP DP  RH WIND       PRES   REMARKS
SPRINGFIELD    CLEAR     74  69  85 SE9       30.09S
JOPLIN         CLEAR     73  66  78 S6        30.07R

$$
MOZ032>034-039>042-045>050-055>058-069>072-020600-
...CENTRAL MISSOURI...

CITY           SKY/WX    TMP DP  RH WIND       PRES   REMARKS
COLUMBIA       NOT AVBL
JEFFERSON CITY CLEAR     77  69  76 E5        30.06S
SEDALIA        CLEAR     75  68  78 S9        30.07S

$$
MOZ051-052-059>065-020600-
...EAST CENTRAL MISSOURI...

CITY           SKY/WX    TMP DP  RH WIND       PRES   REMARKS
ST LOUIS INTL  CLEAR     81  69  67 S7        30.08S

$$
MOZ072>076-082>087-097>100-106>115-020600-
...SOUTH CENTRAL AND SOUTHEAST MISSOURI...

CITY           SKY/WX    TMP DP  RH WIND       PRES   REMARKS
CAPE GIRARDEAU PTCLDY    70  69  97 CALM      30.09S
POPLAR BLUFF   PTCLDY    71  69  93 CALM      30.08S
WEST PLAINS    CLEAR     74  69  85 S6        30.13S

$$


USA.gov is the U.S. government's official web portal to all federal, state and local government web resources and services.